Weather History for KONZ - March, 2014

Change the Weather History Date:

Saturday, March 22, 2014

  Actual Average (KDTW) Record (KDTW)
Temperature  
Mean Temperature 38 °F 40 °F  
Max Temperature 42 °F 48 °F 86 °F (2012)
Min Temperature 33 °F 31 °F 3 °F (1885)
Degree Days  
Heating Degree Days 28 26  
Month to date heating degree days 651  
Since 1 July heating degree days 5204  
Cooling Degree Days 0 0  
Month to date cooling degree days 0  
Year to date cooling degree days 0  
Moisture  
Dew Point 29 °F    
Average Humidity 72    
Maximum Humidity 93    
Minimum Humidity 52    
Precipitation  
Precipitation 0.02 in 0.07 in 0.93 in (1916)
Month to date precipitation 1.56  
Year to date precipitation 5.54  
Snow  
Snow 0.00 in 0.10 in 9.50 in (1916)
Month to date snowfall 5.5  
Since 1 July snowfall 39.4  
Snow Depth -    
Sea Level Pressure  
Sea Level Pressure 29.95 in    
Wind  
Wind Speed 9 mph (WNW)    
Max Wind Speed 21 mph    
Max Gust Speed 30 mph    
Visibility 9 miles    
Events Rain    
T = Trace of Precipitation, MM = Missing Value Source: NWS Daily Summary

Daily Weather History Graph

Daily Weather History Graph

Search for Another Location

Airport or City:

Trip Planner

Search our weather history database for the weather conditions in past years. The results will help you decide how hot, cold, wet, or windy it might be!

Date:

Astronomy

Mar. 22, 2014 Rise Set
Actual Time 7:32 AM EDT 7:47 PM EDT
Civil Twilight 7:04 AM EDT 8:15 PM EDT
Nautical Twilight 6:31 AM EDT 8:47 PM EDT
Astronomical Twilight 5:58 AM EDT 9:21 PM EDT
Moon 1:10 AM EDT (3/22) 11:09 AM EDT (3/22)
Length of Visible Light 13h 10m
Length of Day
12h 14m
Waning Gibbous, 65% of the Moon is Illuminated
Mar 22
Waning Gibbous
Mar 23
Last Quarter
Mar 30
New
Apr 7
First Quarter
Apr 15
Full

Hourly Weather History & Observations

Time (EDT) Temp. Windchill Dew Point Humidity Pressure Visibility Wind Dir Wind Speed Gust Speed Precip Events Conditions
12:14 AM 37.4 °F 32.8 °F 32.0 °F 81% 29.66 in 10.0 mi ESE 5.8 mph - N/A   Overcast
12:34 AM 39.2 °F 32.0 °F 33.8 °F 81% 29.64 in 10.0 mi SSE 11.5 mph - N/A   Mostly Cloudy
12:54 AM 37.4 °F 31.4 °F 33.8 °F 87% 29.63 in 10.0 mi South 8.1 mph - N/A   Overcast
1:14 AM 37.4 °F 28.2 °F 33.8 °F 87% 29.67 in 10.0 mi NW 16.1 mph 19.6 mph N/A   Overcast
1:34 AM 35.6 °F 24.5 °F 30.2 °F 81% 29.71 in 10.0 mi NW 20.7 mph 29.9 mph N/A Rain Light Rain
1:54 AM 35.6 °F 28.0 °F 30.2 °F 81% 29.70 in 10.0 mi NNW 10.4 mph 19.6 mph N/A   Mostly Cloudy
2:14 AM 35.6 °F 29.2 °F 30.2 °F 81% 29.70 in 5.0 mi NW 8.1 mph - N/A Rain Light Rain
2:34 AM 35.6 °F 29.2 °F 32.0 °F 87% 29.70 in 4.0 mi NW 8.1 mph - 0.01 in Rain Light Rain
2:54 AM 35.6 °F - 32.0 °F 87% 29.67 in 4.0 mi Calm Calm - 0.02 in Rain Light Rain
3:14 AM 35.6 °F - 32.0 °F 87% 29.66 in 3.0 mi Calm Calm - N/A Rain Light Rain
3:34 AM 33.8 °F 29.6 °F 30.2 °F 87% 29.67 in 2.5 mi SSW 4.6 mph - N/A   Mostly Cloudy
3:54 AM 33.8 °F 30.8 °F 32.0 °F 93% 29.68 in 3.0 mi SW 3.5 mph - N/A   Scattered Clouds
4:14 AM 33.8 °F 30.8 °F 32.0 °F 93% 29.69 in 3.0 mi WSW 3.5 mph - N/A   Scattered Clouds
4:34 AM 33.8 °F 30.8 °F 30.2 °F 87% 29.70 in 2.5 mi WSW 3.5 mph - N/A   Clear
4:54 AM 35.6 °F 28.6 °F 32.0 °F 87% 29.72 in 3.0 mi WSW 9.2 mph - N/A   Mostly Cloudy
5:14 AM 35.6 °F 28.6 °F 33.8 °F 93% 29.73 in 4.0 mi West 9.2 mph - N/A   Overcast
5:34 AM 35.6 °F 28.0 °F 33.8 °F 93% 29.75 in 4.0 mi West 10.4 mph - N/A   Overcast
5:54 AM 37.4 °F 30.3 °F 35.6 °F 93% 29.77 in 5.0 mi WNW 10.4 mph - N/A   Overcast
6:14 AM 39.2 °F 32.0 °F 35.6 °F 87% 29.79 in 5.0 mi WNW 11.5 mph 18.4 mph N/A   Overcast
6:34 AM 39.2 °F 32.0 °F 35.6 °F 87% 29.81 in 7.0 mi NW 11.5 mph 18.4 mph N/A   Overcast
6:54 AM 39.2 °F 30.8 °F 33.8 °F 81% 29.83 in 10.0 mi NW 15.0 mph 28.8 mph N/A   Mostly Cloudy
7:14 AM 37.4 °F 28.2 °F 32.0 °F 81% 29.85 in 10.0 mi NW 16.1 mph 20.7 mph N/A   Overcast
7:34 AM 37.4 °F 29.8 °F 32.0 °F 81% 29.87 in 10.0 mi NW 11.5 mph 20.7 mph N/A   Overcast
7:54 AM 37.4 °F 29.3 °F 30.2 °F 75% 29.88 in 10.0 mi NNW 12.7 mph 24.2 mph N/A   Overcast
8:14 AM 35.6 °F 28.0 °F 30.2 °F 81% 29.90 in 10.0 mi NW 10.4 mph 21.9 mph N/A   Overcast
8:34 AM 35.6 °F 27.5 °F 30.2 °F 81% 29.92 in 10.0 mi NNW 11.5 mph - N/A   Overcast
8:54 AM 35.6 °F 27.5 °F 30.2 °F 81% 29.94 in 10.0 mi NNW 11.5 mph - N/A   Overcast
9:14 AM 35.6 °F 27.5 °F 28.4 °F 75% 29.96 in 10.0 mi NW 11.5 mph - N/A   Overcast
9:34 AM 35.6 °F 29.2 °F 28.4 °F 75% 29.97 in 10.0 mi NW 8.1 mph 12.7 mph N/A   Overcast
9:54 AM 35.6 °F 28.6 °F 28.4 °F 75% 29.99 in 10.0 mi NNW 9.2 mph - N/A   Overcast
10:14 AM 35.6 °F 28.0 °F 28.4 °F 75% 29.99 in 10.0 mi NW 10.4 mph - N/A   Overcast
10:34 AM 37.4 °F 30.8 °F 28.4 °F 70% 30.00 in 10.0 mi WNW 9.2 mph - N/A   Overcast
10:54 AM 37.4 °F 30.8 °F 28.4 °F 70% 30.02 in 10.0 mi WNW 9.2 mph - N/A   Overcast
11:14 AM 37.4 °F 30.8 °F 28.4 °F 70% 30.02 in 10.0 mi NW 9.2 mph - N/A   Overcast
11:34 AM 37.4 °F 29.8 °F 28.4 °F 70% 30.03 in 10.0 mi NW 11.5 mph 16.1 mph N/A   Overcast
11:54 AM 37.4 °F 30.8 °F 28.4 °F 70% 30.04 in 10.0 mi NNW 9.2 mph - N/A   Overcast
12:14 PM 37.4 °F 31.4 °F 28.4 °F 70% 30.05 in 10.0 mi WNW 8.1 mph - N/A   Overcast
12:34 PM 37.4 °F 31.4 °F 28.4 °F 70% 30.05 in 10.0 mi NW 8.1 mph - N/A   Overcast
12:54 PM 37.4 °F 32.1 °F 28.4 °F 70% 30.06 in 10.0 mi WNW 6.9 mph - N/A   Overcast
1:14 PM 39.2 °F 34.2 °F 28.4 °F 65% 30.06 in 10.0 mi West 6.9 mph - N/A   Overcast
1:34 PM 39.2 °F 32.5 °F 28.4 °F 65% 30.06 in 10.0 mi West 10.4 mph - N/A   Overcast
1:54 PM 39.2 °F 33.0 °F 28.4 °F 65% 30.07 in 10.0 mi WNW 9.2 mph - N/A   Overcast
2:14 PM 39.2 °F 32.5 °F 26.6 °F 61% 30.06 in 10.0 mi WNW 10.4 mph - N/A   Overcast
2:34 PM 39.2 °F 34.2 °F 26.6 °F 61% 30.06 in 10.0 mi West 6.9 mph - N/A   Overcast
2:54 PM 39.2 °F 32.5 °F 26.6 °F 61% 30.06 in 10.0 mi West 10.4 mph - N/A   Overcast
3:14 PM 39.2 °F 33.0 °F 26.6 °F 61% 30.07 in 10.0 mi West 9.2 mph - N/A   Overcast
3:34 PM 42.8 °F 39.3 °F 28.4 °F 57% 30.06 in 10.0 mi West 5.8 mph - N/A   Overcast
3:54 PM 39.2 °F 32.5 °F 24.8 °F 56% 30.06 in 10.0 mi West 10.4 mph - N/A   Overcast
4:14 PM 39.2 °F 32.5 °F 26.6 °F 61% 30.06 in 10.0 mi WNW 10.4 mph - N/A   Overcast
4:34 PM 39.2 °F 32.0 °F 26.6 °F 61% 30.07 in 10.0 mi WNW 11.5 mph - N/A   Overcast
4:54 PM 41.0 °F 36.4 °F 26.6 °F 57% 30.07 in 10.0 mi West 6.9 mph - N/A   Overcast
5:14 PM 39.2 °F 32.5 °F 24.8 °F 56% 30.07 in 10.0 mi WNW 10.4 mph - N/A   Overcast
5:34 PM 39.2 °F 32.5 °F 24.8 °F 56% 30.07 in 10.0 mi West 10.4 mph - N/A   Overcast
5:54 PM 39.2 °F 34.2 °F 24.8 °F 56% 30.08 in 10.0 mi NW 6.9 mph - N/A   Overcast
6:14 PM 39.2 °F 31.6 °F 24.8 °F 56% 30.08 in 10.0 mi NW 12.7 mph 18.4 mph N/A   Overcast
6:34 PM 39.2 °F 32.5 °F 24.8 °F 56% 30.09 in 10.0 mi WNW 10.4 mph - N/A   Overcast
6:54 PM 39.2 °F 33.0 °F 24.8 °F 56% 30.09 in 10.0 mi WNW 9.2 mph - N/A   Overcast
7:14 PM 39.2 °F 35.0 °F 23.0 °F 52% 30.09 in 10.0 mi West 5.8 mph 9.2 mph N/A   Overcast
7:34 PM 39.2 °F 33.6 °F 23.0 °F 52% 30.10 in 10.0 mi West 8.1 mph - N/A   Overcast
7:54 PM 39.2 °F 35.0 °F 24.8 °F 56% 30.10 in 10.0 mi WNW 5.8 mph - N/A   Overcast
8:14 PM 39.2 °F 33.6 °F 24.8 °F 56% 30.11 in 10.0 mi WNW 8.1 mph 16.1 mph N/A   Overcast
8:35 PM 37.4 °F 27.2 °F 26.6 °F 65% 30.13 in 10.0 mi NW 19.6 mph - N/A   Overcast
8:54 PM 37.4 °F 30.3 °F 28.4 °F 70% 30.14 in 10.0 mi NW 10.4 mph - N/A   Overcast
9:14 PM 35.6 °F 26.2 °F 28.4 °F 75% 30.15 in 10.0 mi NNW 15.0 mph - N/A   Overcast
9:34 PM 35.6 °F 28.0 °F 28.4 °F 75% 30.15 in 10.0 mi NNW 10.4 mph - N/A   Overcast
9:54 PM 35.6 °F 28.0 °F 26.6 °F 70% 30.16 in 10.0 mi NW 10.4 mph 16.1 mph N/A   Overcast
10:14 PM 33.8 °F 25.8 °F 26.6 °F 75% 30.15 in 10.0 mi NNW 10.4 mph - N/A   Overcast
10:34 PM 33.8 °F 27.0 °F 24.8 °F 70% 30.15 in 10.0 mi NW 8.1 mph 17.3 mph N/A   Overcast
10:54 PM 33.8 °F 27.0 °F 24.8 °F 70% 30.16 in 10.0 mi NW 8.1 mph - N/A   Overcast
11:14 PM 33.8 °F 27.7 °F 24.8 °F 70% 30.16 in 10.0 mi NNW 6.9 mph - N/A   Overcast
11:34 PM 33.8 °F 25.3 °F 24.8 °F 70% 30.17 in 10.0 mi NNW 11.5 mph - N/A   Overcast
11:54 PM 33.8 °F 25.3 °F 23.0 °F 65% 30.18 in 10.0 mi NNW 11.5 mph - N/A   Overcast